Skip Page Navigation
NASA JPL Caltech
NASA Logo - Jet Propulsion Laboratory + View the NASA Portal
+ Near-Earth Object (NEO) Program
Search JPL
JPL Home Earth Solar System Stars & Galaxies Technology
JPL Solar System Dynamics
BODIES ORBITS EPHEMERIDES TOOLS PHYSICAL DATA DISCOVERY FAQ SITE MAP
JPL Small-Body Database Browser
Search: [ help ]  
52500 Kanata (1996 DC1)
Classification: Main-belt Asteroid          SPK-ID: 2052500
Ephemeris | Orbit Diagram | Orbital Elements | Physical Parameters | Discovery Circumstances ]

[ show orbit diagram ]
Orbital Elements at Epoch 2456400.5 (2013-Apr-18.0) TDB
Reference: MPO253695 (heliocentric ecliptic J2000)
 Element Value Uncertainty (1-sigma)   Units 
e 0.1104465 n/a  
a 2.3621381 n/a AU
q 2.1012482 n/a AU
i 9.90110 n/a deg
node 334.58224 n/a deg
peri 174.49252 n/a deg
M 268.63016 n/a deg
tp 2456737.0555226
(2014-Mar-20.55552260)
n/a JED
period 1326.0391847
3.63
n/a
n/a
d
yr
n 0.27148519 n/a deg/d
Q 2.6230280 n/a AU
  Orbit Determination Parameters
   # obs. used (total)      515  
   first obs. used      1996-??-??  
   last obs. used      2013-02-02  
   # oppositions      10  
   planetary ephem.      DE403  
   condition code      0  
   fit RMS      0.54  
   data source      MPC:mpn  
   producer      MPCLINUX  

Additional Information
 T_jup = 3.522 

Ephemeris | Orbit Diagram | Orbital Elements | Physical Parameters | Discovery Circumstances ]

Physical Parameter Table
Parameter Symbol Value Units Sigma Reference Notes
absolute magnitude H 14.5 mag n/a MPO253695  

52500 Kanata           Discovered 1996 Feb. 22 by T. Kobayashi at Oizumi.
KANATA, which means "Far Away", was proposed by the people of Japan for the name of the new 1.5-m telescope of Hiroshima University. The KANATA Telescope is mainly used to observe high-energy phenomena such as optical afterglows of \gamma -ray bursts. It is also used to show people the beauty and wonder of the universe.
NOTE: some special characters may not display properly (any characters within {} are an attempt to place the proper accent above a character)
Reference: 20060809/MPCPages.arcLast Updated: 2007-08-08

Alternate Designations
 1996 DC1 = 1998 VN54 
Ephemeris | Orbit Diagram | Orbital Elements | Physical Parameters | Discovery Circumstances ]
ABOUT SSD CREDITS/AWARDS PRIVACY/COPYRIGHT GLOSSARY LINKS
FirstGov 2013-May-19 21:51 UT
(server date/time)  
NASA Home Page
Site Manager:   Donald K. Yeomans
Webmaster  Alan B. Chamberlin